Date_Time,Julian_Date,Latitude,Longitude,Instrument_Depth,U,V,Speed,Direction
(yyyy-mm-dd hh:mn:ss UTC),(JD),(+ deg. North),(+ deg. East),(m),(cm/s),(cm/s),(cm/s),(deg True)
1977-07-17 19:51:00 UTC,2443342.327083,29.1083,-87.9186,0094,1.52,1.04,1.8417,55.6197
1977-07-17 20:11:00 UTC,2443342.340972,29.1083,-87.9186,0094,1.42,1.04,1.7601,53.7812
1977-07-17 20:31:00 UTC,2443342.354861,29.1083,-87.9186,0094,1.28,0.98,1.6121,52.5614
1977-07-17 20:51:00 UTC,2443342.368750,29.1083,-87.9186,0094,1.03,0.79,1.2981,52.5121
1977-07-17 21:11:00 UTC,2443342.382639,29.1083,-87.9186,0094,1.39,1.41,1.9799,44.5908
1977-07-17 21:31:00 UTC,2443342.396528,29.1083,-87.9186,0094,1.00,1.06,1.4573,43.3317
1977-07-17 21:51:00 UTC,2443342.410417,29.1083,-87.9186,0094,0.86,0.78,1.1610,47.7927
1977-07-17 22:11:00 UTC,2443342.424306,29.1083,-87.9186,0094,0.70,0.72,1.0042,44.1931
1977-07-17 22:31:00 UTC,2443342.438194,29.1083,-87.9186,0094,0.64,0.71,0.9559,42.0318
1977-07-17 22:51:00 UTC,2443342.452083,29.1083,-87.9186,0094,0.50,0.70,0.8602,35.5377
1977-07-17 23:11:00 UTC,2443342.465972,29.1083,-87.9186,0094,0.47,0.74,0.8766,32.4211
1977-07-17 23:31:00 UTC,2443342.479861,29.1083,-87.9186,0094,0.48,0.80,0.9330,30.9638
1977-07-17 23:51:00 UTC,2443342.493750,29.1083,-87.9186,0094,0.51,1.00,1.1225,27.0216
1977-07-18 00:11:00 UTC,2443342.507639,29.1083,-87.9186,0094,0.55,1.21,1.3291,24.4440
1977-07-18 00:31:00 UTC,2443342.521528,29.1083,-87.9186,0094,0.44,1.23,1.3063,19.6833
1977-07-18 00:51:00 UTC,2443342.535417,29.1083,-87.9186,0094,0.48,1.15,1.2462,22.6552
1977-07-18 01:11:00 UTC,2443342.549306,29.1083,-87.9186,0094,0.49,1.26,1.3519,21.2505
1977-07-18 01:31:00 UTC,2443342.563194,29.1083,-87.9186,0094,0.38,1.25,1.3065,16.9093
1977-07-18 01:51:00 UTC,2443342.577083,29.1083,-87.9186,0094,0.39,1.50,1.5499,14.5742
1977-07-18 02:11:00 UTC,2443342.590972,29.1083,-87.9186,0094,0.33,1.62,1.6533,11.5138
1977-07-18 02:31:00 UTC,2443342.604861,29.1083,-87.9186,0094,0.27,1.76,1.7806,8.7217
1977-07-18 02:51:00 UTC,2443342.618750,29.1083,-87.9186,0094,0.45,1.85,1.9039,13.6713
1977-07-18 03:11:00 UTC,2443342.632639,29.1083,-87.9186,0094,0.62,1.85,1.9511,18.5278
1977-07-18 03:31:00 UTC,2443342.646528,29.1083,-87.9186,0094,0.50,1.83,1.8971,15.2816
1977-07-18 03:51:00 UTC,2443342.660417,29.1083,-87.9186,0094,0.46,1.93,1.9841,13.4059
1977-07-18 04:11:00 UTC,2443342.674306,29.1083,-87.9186,0094,0.39,1.92,1.9592,11.4820
1977-07-18 04:31:00 UTC,2443342.688194,29.1083,-87.9186,0094,0.34,2.02,2.0484,9.5543
1977-07-18 04:51:00 UTC,2443342.702083,29.1083,-87.9186,0094,0.33,2.06,2.0863,9.1011
1977-07-18 05:11:00 UTC,2443342.715972,29.1083,-87.9186,0094,0.58,2.00,2.0824,16.1722
1977-07-18 05:31:00 UTC,2443342.729861,29.1083,-87.9186,0094,0.50,1.94,2.0034,14.4524
1977-07-18 05:51:00 UTC,2443342.743750,29.1083,-87.9186,0094,0.50,1.90,1.9647,14.7436
1977-07-18 06:11:00 UTC,2443342.757639,29.1083,-87.9186,0094,0.61,1.97,2.0623,17.2049
1977-07-18 06:31:00 UTC,2443342.771528,29.1083,-87.9186,0094,0.56,2.07,2.1444,15.1379
1977-07-18 06:51:00 UTC,2443342.785417,29.1083,-87.9186,0094,0.57,1.83,1.9167,17.3005
1977-07-18 07:11:00 UTC,2443342.799306,29.1083,-87.9186,0094,0.63,1.88,1.9828,18.5263
1977-07-18 07:31:00 UTC,2443342.813194,29.1083,-87.9186,0094,0.66,1.91,2.0208,19.0626
1977-07-18 07:51:00 UTC,2443342.827083,29.1083,-87.9186,0094,0.64,1.90,2.0049,18.6157
1977-07-18 08:11:00 UTC,2443342.840972,29.1083,-87.9186,0094,0.66,1.89,2.0019,19.2495
1977-07-18 08:31:00 UTC,2443342.854861,29.1083,-87.9186,0094,0.76,2.09,2.2239,19.9831
1977-07-18 08:51:00 UTC,2443342.868750,29.1083,-87.9186,0094,0.80,2.15,2.2940,20.4099
1977-07-18 09:11:00 UTC,2443342.882639,29.1083,-87.9186,0094,0.73,2.17,2.2895,18.5932
1977-07-18 09:31:00 UTC,2443342.896528,29.1083,-87.9186,0094,0.83,2.16,2.3140,21.0197
1977-07-18 09:51:00 UTC,2443342.910417,29.1083,-87.9186,0094,0.59,2.19,2.2681,15.0779
1977-07-18 10:11:00 UTC,2443342.924306,29.1083,-87.9186,0094,0.83,2.10,2.2581,21.5658
1977-07-18 10:31:00 UTC,2443342.938194,29.1083,-87.9186,0094,0.74,2.23,2.3496,18.3578
1977-07-18 10:51:00 UTC,2443342.952083,29.1083,-87.9186,0094,0.97,2.05,2.2679,25.3221
1977-07-18 11:11:00 UTC,2443342.965972,29.1083,-87.9186,0094,0.94,2.04,2.2462,24.7395
1977-07-18 11:31:00 UTC,2443342.979861,29.1083,-87.9186,0094,0.81,2.05,2.2042,21.5601
1977-07-18 11:51:00 UTC,2443342.993750,29.1083,-87.9186,0094,0.75,2.12,2.2488,19.4824
1977-07-18 12:11:00 UTC,2443343.007639,29.1083,-87.9186,0094,0.72,2.24,2.3529,17.8189
1977-07-18 12:31:00 UTC,2443343.021528,29.1083,-87.9186,0094,0.77,2.14,2.2743,19.7894
1977-07-18 12:51:00 UTC,2443343.035417,29.1083,-87.9186,0094,0.83,2.22,2.3701,20.4995
1977-07-18 13:11:00 UTC,2443343.049306,29.1083,-87.9186,0094,0.86,2.10,2.2693,22.2703
1977-07-18 13:31:00 UTC,2443343.063194,29.1083,-87.9186,0094,0.98,1.76,2.0144,29.1099
1977-07-18 13:51:00 UTC,2443343.077083,29.1083,-87.9186,0094,1.00,1.92,2.1648,27.5120
1977-07-18 14:11:00 UTC,2443343.090972,29.1083,-87.9186,0094,1.16,1.93,2.2518,31.0074
1977-07-18 14:31:00 UTC,2443343.104861,29.1083,-87.9186,0094,1.09,1.97,2.2514,28.9557
1977-07-18 14:51:00 UTC,2443343.118750,29.1083,-87.9186,0094,1.07,2.12,2.3747,26.7809
1977-07-18 15:11:00 UTC,2443343.132639,29.1083,-87.9186,0094,0.99,2.13,2.3488,24.9285
1977-07-18 15:31:00 UTC,2443343.146528,29.1083,-87.9186,0094,1.07,2.03,2.2947,27.7934
1977-07-18 15:51:00 UTC,2443343.160417,29.1083,-87.9186,0094,1.06,1.84,2.1235,29.9457
1977-07-18 16:11:00 UTC,2443343.174306,29.1083,-87.9186,0094,1.05,1.94,2.2059,28.4239
1977-07-18 16:31:00 UTC,2443343.188194,29.1083,-87.9186,0094,1.29,1.99,2.3715,32.9530
1977-07-18 16:51:00 UTC,2443343.202083,29.1083,-87.9186,0094,1.09,1.96,2.2427,29.0794
1977-07-18 17:11:00 UTC,2443343.215972,29.1083,-87.9186,0094,1.34,2.01,2.4157,33.6901
1977-07-18 17:31:00 UTC,2443343.229861,29.1083,-87.9186,0094,1.34,2.01,2.4157,33.6901
1977-07-18 17:51:00 UTC,2443343.243750,29.1083,-87.9186,0094,1.27,1.85,2.2440,34.4691
1977-07-18 18:11:00 UTC,2443343.257639,29.1083,-87.9186,0094,1.20,1.63,2.0241,36.3604
1977-07-18 18:31:00 UTC,2443343.271528,29.1083,-87.9186,0094,1.26,1.50,1.9590,40.0303
1977-07-18 18:51:00 UTC,2443343.285417,29.1083,-87.9186,0094,1.26,1.31,1.8176,43.8854
1977-07-18 19:11:00 UTC,2443343.299306,29.1083,-87.9186,0094,1.18,1.30,1.7557,42.2298
1977-07-18 19:31:00 UTC,2443343.313194,29.1083,-87.9186,0094,1.13,1.24,1.6776,42.3426
1977-07-18 19:51:00 UTC,2443343.327083,29.1083,-87.9186,0094,1.16,1.38,1.8028,40.0497
1977-07-18 20:11:00 UTC,2443343.340972,29.1083,-87.9186,0094,1.22,1.40,1.8570,41.0698
1977-07-18 20:31:00 UTC,2443343.354861,29.1083,-87.9186,0094,1.30,1.36,1.8814,43.7078
1977-07-18 20:51:00 UTC,2443343.368750,29.1083,-87.9186,0094,1.08,1.25,1.6519,40.8270
1977-07-18 21:11:00 UTC,2443343.382639,29.1083,-87.9186,0094,1.37,1.32,1.9024,46.0649
1977-07-18 21:31:00 UTC,2443343.396528,29.1083,-87.9186,0094,1.24,1.36,1.8404,42.3575
1977-07-18 21:51:00 UTC,2443343.410417,29.1083,-87.9186,0094,1.25,1.43,1.8993,41.1575
1977-07-18 22:11:00 UTC,2443343.424306,29.1083,-87.9186,0094,1.19,1.40,1.8374,40.3645
1977-07-18 22:31:00 UTC,2443343.438194,29.1083,-87.9186,0094,1.15,1.59,1.9623,35.8771
1977-07-18 22:51:00 UTC,2443343.452083,29.1083,-87.9186,0094,1.30,1.52,2.0001,40.5391
1977-07-18 23:11:00 UTC,2443343.465972,29.1083,-87.9186,0094,1.27,1.44,1.9200,41.4105
1977-07-18 23:31:00 UTC,2443343.479861,29.1083,-87.9186,0094,1.26,1.59,2.0287,38.3952
1977-07-18 23:51:00 UTC,2443343.493750,29.1083,-87.9186,0094,1.15,1.59,1.9623,35.8771
1977-07-19 00:11:00 UTC,2443343.507639,29.1083,-87.9186,0094,1.14,1.50,1.8840,37.2348
1977-07-19 00:31:00 UTC,2443343.521528,29.1083,-87.9186,0094,1.05,1.59,1.9054,33.4399
1977-07-19 00:51:00 UTC,2443343.535417,29.1083,-87.9186,0094,0.96,1.34,1.6484,35.6185
1977-07-19 01:11:00 UTC,2443343.549306,29.1083,-87.9186,0094,0.95,1.60,1.8608,30.6997
1977-07-19 01:31:00 UTC,2443343.563194,29.1083,-87.9186,0094,1.06,1.50,1.8367,35.2476
1977-07-19 01:51:00 UTC,2443343.577083,29.1083,-87.9186,0094,0.84,1.45,1.6757,30.0842
1977-07-19 02:11:00 UTC,2443343.590972,29.1083,-87.9186,0094,0.89,1.52,1.7614,30.3501
1977-07-19 02:31:00 UTC,2443343.604861,29.1083,-87.9186,0094,0.90,1.65,1.8795,28.6105
1977-07-19 02:51:00 UTC,2443343.618750,29.1083,-87.9186,0094,0.90,1.70,1.9235,27.8973
1977-07-19 03:11:00 UTC,2443343.632639,29.1083,-87.9186,0094,0.91,1.55,1.7974,30.4171
1977-07-19 03:31:00 UTC,2443343.646528,29.1083,-87.9186,0094,0.79,1.50,1.6953,27.7743
1977-07-19 03:51:00 UTC,2443343.660417,29.1083,-87.9186,0094,0.91,1.40,1.6698,33.0239
1977-07-19 04:11:00 UTC,2443343.674306,29.1083,-87.9186,0094,1.04,1.23,1.6107,40.2155
1977-07-19 04:31:00 UTC,2443343.688194,29.1083,-87.9186,0094,0.74,1.51,1.6816,26.1079
1977-07-19 04:51:00 UTC,2443343.702083,29.1083,-87.9186,0094,0.58,1.64,1.7395,19.4766
1977-07-19 05:11:00 UTC,2443343.715972,29.1083,-87.9186,0094,0.63,1.57,1.6917,21.8643
1977-07-19 05:31:00 UTC,2443343.729861,29.1083,-87.9186,0094,0.66,1.70,1.8236,21.2180
1977-07-19 05:51:00 UTC,2443343.743750,29.1083,-87.9186,0094,0.64,1.90,2.0049,18.6157
1977-07-19 06:11:00 UTC,2443343.757639,29.1083,-87.9186,0094,0.71,1.87,2.0002,20.7907
1977-07-19 06:31:00 UTC,2443343.771528,29.1083,-87.9186,0094,0.56,1.94,2.0192,16.1013
1977-07-19 06:51:00 UTC,2443343.785417,29.1083,-87.9186,0094,0.49,2.13,2.1856,12.9553
1977-07-19 07:11:00 UTC,2443343.799306,29.1083,-87.9186,0094,0.57,2.09,2.1663,15.2551
1977-07-19 07:31:00 UTC,2443343.813194,29.1083,-87.9186,0094,0.73,2.15,2.2706,18.7541
1977-07-19 07:51:00 UTC,2443343.827083,29.1083,-87.9186,0094,0.67,1.69,1.8180,21.6258
1977-07-19 08:11:00 UTC,2443343.840972,29.1083,-87.9186,0094,0.68,2.14,2.2454,17.6280
1977-07-19 08:31:00 UTC,2443343.854861,29.1083,-87.9186,0094,0.67,1.93,2.0430,19.1445
1977-07-19 08:51:00 UTC,2443343.868750,29.1083,-87.9186,0094,0.66,1.71,1.8329,21.1048
1977-07-19 09:11:00 UTC,2443343.882639,29.1083,-87.9186,0094,0.59,1.83,1.9228,17.8695
1977-07-19 09:31:00 UTC,2443343.896528,29.1083,-87.9186,0094,0.79,1.59,1.7754,26.4207
1977-07-19 09:51:00 UTC,2443343.910417,29.1083,-87.9186,0094,0.61,1.69,1.7967,19.8469
1977-07-19 10:11:00 UTC,2443343.924306,29.1083,-87.9186,0094,0.61,1.60,1.7123,20.8693
1977-07-19 10:31:00 UTC,2443343.938194,29.1083,-87.9186,0094,0.61,1.58,1.6937,21.1104
1977-07-19 10:51:00 UTC,2443343.952083,29.1083,-87.9186,0094,0.50,1.40,1.4866,19.6538
1977-07-19 11:11:00 UTC,2443343.965972,29.1083,-87.9186,0094,0.66,1.49,1.6296,23.8911
1977-07-19 11:31:00 UTC,2443343.979861,29.1083,-87.9186,0094,0.58,1.46,1.5710,21.6660
1977-07-19 11:51:00 UTC,2443343.993750,29.1083,-87.9186,0094,0.75,1.63,1.7943,24.7082
1977-07-19 12:11:00 UTC,2443344.007639,29.1083,-87.9186,0094,0.54,1.61,1.6981,18.5416
1977-07-19 12:31:00 UTC,2443344.021528,29.1083,-87.9186,0094,0.63,1.57,1.6917,21.8643
1977-07-19 12:51:00 UTC,2443344.035417,29.1083,-87.9186,0094,0.69,1.64,1.7792,22.8180
1977-07-19 13:11:00 UTC,2443344.049306,29.1083,-87.9186,0094,0.66,1.49,1.6296,23.8911
1977-07-19 13:31:00 UTC,2443344.063194,29.1083,-87.9186,0094,0.68,1.60,1.7385,23.0255
1977-07-19 13:51:00 UTC,2443344.077083,29.1083,-87.9186,0094,0.70,1.75,1.8848,21.8014
1977-07-19 14:11:00 UTC,2443344.090972,29.1083,-87.9186,0094,0.79,1.84,2.0024,23.2362
1977-07-19 14:31:00 UTC,2443344.104861,29.1083,-87.9186,0094,0.80,1.86,2.0247,23.2729
1977-07-19 14:51:00 UTC,2443344.118750,29.1083,-87.9186,0094,0.84,1.86,2.0409,24.3045
1977-07-19 15:11:00 UTC,2443344.132639,29.1083,-87.9186,0094,1.37,1.60,2.1064,40.5718
1977-07-19 15:31:00 UTC,2443344.146528,29.1083,-87.9186,0094,0.87,1.99,2.1719,23.6143
1977-07-19 15:51:00 UTC,2443344.160417,29.1083,-87.9186,0094,0.96,2.10,2.3090,24.5672
1977-07-19 16:11:00 UTC,2443344.174306,29.1083,-87.9186,0094,1.00,2.15,2.3712,24.9439
1977-07-19 16:31:00 UTC,2443344.188194,29.1083,-87.9186,0094,1.01,2.24,2.4572,24.2703
1977-07-19 16:51:00 UTC,2443344.202083,29.1083,-87.9186,0094,0.92,2.04,2.2379,24.2744
1977-07-19 17:11:00 UTC,2443344.215972,29.1083,-87.9186,0094,0.99,2.02,2.2496,26.1094
1977-07-19 17:31:00 UTC,2443344.229861,29.1083,-87.9186,0094,1.17,2.04,2.3517,29.8355
1977-07-19 17:51:00 UTC,2443344.243750,29.1083,-87.9186,0094,1.11,2.02,2.3049,28.7890
1977-07-19 18:11:00 UTC,2443344.257639,29.1083,-87.9186,0094,1.18,1.96,2.2878,31.0497
1977-07-19 18:31:00 UTC,2443344.271528,29.1083,-87.9186,0094,1.32,1.97,2.3713,33.8241
1977-07-19 18:51:00 UTC,2443344.285417,29.1083,-87.9186,0094,1.25,1.99,2.3500,32.1346
1977-07-19 19:11:00 UTC,2443344.299306,29.1083,-87.9186,0094,1.25,1.99,2.3500,32.1346
1977-07-19 19:31:00 UTC,2443344.313194,29.1083,-87.9186,0094,1.26,2.04,2.3977,31.7014
1977-07-19 19:51:00 UTC,2443344.327083,29.1083,-87.9186,0094,1.45,1.83,2.3348,38.3915
1977-07-19 20:11:00 UTC,2443344.340972,29.1083,-87.9186,0094,1.55,1.86,2.4212,39.8056
1977-07-19 20:31:00 UTC,2443344.354861,29.1083,-87.9186,0094,1.60,1.70,2.3345,43.2643
1977-07-19 20:51:00 UTC,2443344.368750,29.1083,-87.9186,0094,1.55,1.71,2.3079,42.1902
1977-07-19 21:11:00 UTC,2443344.382639,29.1083,-87.9186,0094,1.53,1.81,2.3700,40.2080
1977-07-19 21:31:00 UTC,2443344.396528,29.1083,-87.9186,0094,1.41,1.75,2.2474,38.8589
1977-07-19 21:51:00 UTC,2443344.410417,29.1083,-87.9186,0094,1.22,1.71,2.1006,35.5060
1977-07-19 22:11:00 UTC,2443344.424306,29.1083,-87.9186,0094,1.18,1.79,2.1439,33.3936
1977-07-19 22:31:00 UTC,2443344.438194,29.1083,-87.9186,0094,1.17,1.44,1.8554,39.0939
1977-07-19 22:51:00 UTC,2443344.452083,29.1083,-87.9186,0094,1.28,1.52,1.9872,40.1009
1977-07-19 23:11:00 UTC,2443344.465972,29.1083,-87.9186,0094,1.12,1.33,1.7388,40.1009
1977-07-19 23:31:00 UTC,2443344.479861,29.1083,-87.9186,0094,0.97,1.17,1.5198,39.6608
1977-07-19 23:51:00 UTC,2443344.493750,29.1083,-87.9186,0094,0.97,1.29,1.6140,36.9409
1977-07-20 00:11:00 UTC,2443344.507639,29.1083,-87.9186,0094,0.79,1.29,1.5127,31.4834
1977-07-20 00:31:00 UTC,2443344.521528,29.1083,-87.9186,0094,0.87,1.41,1.6568,31.6755
1977-07-20 00:51:00 UTC,2443344.535417,29.1083,-87.9186,0094,0.91,1.40,1.6698,33.0239
1977-07-20 01:11:00 UTC,2443344.549306,29.1083,-87.9186,0094,0.76,1.28,1.4886,30.6997
1977-07-20 01:31:00 UTC,2443344.563194,29.1083,-87.9186,0094,0.73,1.35,1.5347,28.4019
1977-07-20 01:51:00 UTC,2443344.577083,29.1083,-87.9186,0094,0.52,1.31,1.4094,21.6504
1977-07-20 02:11:00 UTC,2443344.590972,29.1083,-87.9186,0094,0.60,1.28,1.4136,25.1148
1977-07-20 02:31:00 UTC,2443344.604861,29.1083,-87.9186,0094,0.51,1.47,1.5560,19.1336
1977-07-20 02:51:00 UTC,2443344.618750,29.1083,-87.9186,0094,0.50,1.54,1.6191,17.9873
1977-07-20 03:11:00 UTC,2443344.632639,29.1083,-87.9186,0094,0.44,1.62,1.6787,15.1952
1977-07-20 03:31:00 UTC,2443344.646528,29.1083,-87.9186,0094,0.56,1.69,1.7804,18.3332
1977-07-20 03:51:00 UTC,2443344.660417,29.1083,-87.9186,0094,0.51,1.62,1.6984,17.4748
1977-07-20 04:11:00 UTC,2443344.674306,29.1083,-87.9186,0094,0.39,1.65,1.6955,13.2986
1977-07-20 04:31:00 UTC,2443344.688194,29.1083,-87.9186,0094,0.32,1.37,1.4069,13.1472
1977-07-20 04:51:00 UTC,2443344.702083,29.1083,-87.9186,0094,0.46,1.40,1.4736,18.1890
1977-07-20 05:11:00 UTC,2443344.715972,29.1083,-87.9186,0094,0.39,1.35,1.4052,16.1134
1977-07-20 05:31:00 UTC,2443344.729861,29.1083,-87.9186,0094,0.24,1.35,1.3712,10.0806
1977-07-20 05:51:00 UTC,2443344.743750,29.1083,-87.9186,0094,0.17,1.48,1.4897,6.5526
1977-07-20 06:11:00 UTC,2443344.757639,29.1083,-87.9186,0094,0.20,1.44,1.4538,7.9072
1977-07-20 06:31:00 UTC,2443344.771528,29.1083,-87.9186,0094,0.23,1.41,1.4286,9.2645
1977-07-20 06:51:00 UTC,2443344.785417,29.1083,-87.9186,0094,0.25,1.62,1.6392,8.7727
1977-07-20 07:11:00 UTC,2443344.799306,29.1083,-87.9186,0094,0.27,1.74,1.7608,8.8204
1977-07-20 07:31:00 UTC,2443344.813194,29.1083,-87.9186,0094,0.24,1.82,1.8358,7.5121
1977-07-20 07:51:00 UTC,2443344.827083,29.1083,-87.9186,0094,0.27,1.59,1.6128,9.6375
1977-07-20 08:11:00 UTC,2443344.840972,29.1083,-87.9186,0094,0.41,1.98,2.0220,11.6989
1977-07-20 08:31:00 UTC,2443344.854861,29.1083,-87.9186,0094,0.56,2.07,2.1444,15.1379
1977-07-20 08:51:00 UTC,2443344.868750,29.1083,-87.9186,0094,0.65,2.09,2.1887,17.2759
1977-07-20 09:11:00 UTC,2443344.882639,29.1083,-87.9186,0094,0.65,2.14,2.2365,16.8955
1977-07-20 09:31:00 UTC,2443344.896528,29.1083,-87.9186,0094,0.73,2.17,2.2895,18.5932
1977-07-20 09:51:00 UTC,2443344.910417,29.1083,-87.9186,0094,0.87,2.16,2.3286,21.9385
1977-07-20 10:11:00 UTC,2443344.924306,29.1083,-87.9186,0094,0.77,2.16,2.2931,19.6202
1977-07-20 10:31:00 UTC,2443344.938194,29.1083,-87.9186,0094,0.88,2.16,2.3324,22.1663
1977-07-20 10:51:00 UTC,2443344.952083,29.1083,-87.9186,0094,0.86,2.23,2.3901,21.0891
1977-07-20 11:11:00 UTC,2443344.965972,29.1083,-87.9186,0094,1.08,2.14,2.3971,26.7788
1977-07-20 11:31:00 UTC,2443344.979861,29.1083,-87.9186,0094,0.92,2.30,2.4772,21.8014
1977-07-20 11:51:00 UTC,2443344.993750,29.1083,-87.9186,0094,0.93,2.36,2.5366,21.5078
1977-07-20 12:11:00 UTC,2443345.007639,29.1083,-87.9186,0094,0.90,2.32,2.4885,21.2028
1977-07-20 12:31:00 UTC,2443345.021528,29.1083,-87.9186,0094,1.06,2.35,2.5780,24.2784
1977-07-20 12:51:00 UTC,2443345.035417,29.1083,-87.9186,0094,1.17,2.16,2.4565,28.4429
1977-07-20 13:11:00 UTC,2443345.049306,29.1083,-87.9186,0094,1.21,2.16,2.4758,29.2569
1977-07-20 13:31:00 UTC,2443345.063194,29.1083,-87.9186,0094,1.12,2.25,2.5133,26.4631
1977-07-20 13:51:00 UTC,2443345.077083,29.1083,-87.9186,0094,1.12,2.25,2.5133,26.4631
1977-07-20 14:11:00 UTC,2443345.090972,29.1083,-87.9186,0094,1.16,2.23,2.5137,27.4825
1977-07-20 14:31:00 UTC,2443345.104861,29.1083,-87.9186,0094,1.16,2.28,2.5581,26.9657
1977-07-20 14:51:00 UTC,2443345.118750,29.1083,-87.9186,0094,1.12,2.25,2.5133,26.4631
1977-07-20 15:11:00 UTC,2443345.132639,29.1083,-87.9186,0094,1.14,2.23,2.5045,27.0766
1977-07-20 15:31:00 UTC,2443345.146528,29.1083,-87.9186,0094,1.39,2.31,2.6960,31.0367
1977-07-20 15:51:00 UTC,2443345.160417,29.1083,-87.9186,0094,1.26,2.32,2.6401,28.5065
1977-07-20 16:11:00 UTC,2443345.174306,29.1083,-87.9186,0094,1.48,2.69,3.0703,28.8190
1977-07-20 16:31:00 UTC,2443345.188194,29.1083,-87.9186,0094,1.11,2.07,2.3488,28.2016
1977-07-20 16:51:00 UTC,2443345.202083,29.1083,-87.9186,0094,1.47,2.31,2.7381,32.4712
1977-07-20 17:11:00 UTC,2443345.215972,29.1083,-87.9186,0094,1.45,2.20,2.6349,33.3885
1977-07-20 17:31:00 UTC,2443345.229861,29.1083,-87.9186,0094,1.39,2.05,2.4768,34.1392
1977-07-20 17:51:00 UTC,2443345.243750,29.1083,-87.9186,0094,1.36,1.98,2.4021,34.4840
1977-07-20 18:11:00 UTC,2443345.257639,29.1083,-87.9186,0094,1.42,2.16,2.5850,33.3212
1977-07-20 18:31:00 UTC,2443345.271528,29.1083,-87.9186,0094,1.40,2.09,2.5156,33.8164
1977-07-20 18:51:00 UTC,2443345.285417,29.1083,-87.9186,0094,1.45,1.88,2.3742,37.6422
1977-07-20 19:11:00 UTC,2443345.299306,29.1083,-87.9186,0094,1.32,1.92,2.3300,34.5085
1977-07-20 19:31:00 UTC,2443345.313194,29.1083,-87.9186,0094,1.40,1.76,2.2489,38.5007
1977-07-20 19:51:00 UTC,2443345.327083,29.1083,-87.9186,0094,1.23,1.74,2.1308,35.2564
1977-07-20 20:11:00 UTC,2443345.340972,29.1083,-87.9186,0094,1.16,1.76,2.1079,33.3885
1977-07-20 20:31:00 UTC,2443345.354861,29.1083,-87.9186,0094,1.20,1.70,2.0809,35.2176
1977-07-20 20:51:00 UTC,2443345.368750,29.1083,-87.9186,0094,1.17,1.60,1.9821,36.1761
1977-07-20 21:11:00 UTC,2443345.382639,29.1083,-87.9186,0094,1.02,1.55,1.8555,33.3475
1977-07-20 21:31:00 UTC,2443345.396528,29.1083,-87.9186,0094,0.91,1.30,1.5869,34.9920
1977-07-20 21:51:00 UTC,2443345.410417,29.1083,-87.9186,0094,1.08,1.36,1.7367,38.4537
1977-07-20 22:11:00 UTC,2443345.424306,29.1083,-87.9186,0094,1.01,1.38,1.7101,36.1998
1977-07-20 22:31:00 UTC,2443345.438194,29.1083,-87.9186,0094,1.01,1.29,1.6384,38.0590
1977-07-20 22:51:00 UTC,2443345.452083,29.1083,-87.9186,0094,0.89,1.22,1.5101,36.1111
1977-07-20 23:11:00 UTC,2443345.465972,29.1083,-87.9186,0094,0.84,1.28,1.5310,33.2749
1977-07-20 23:31:00 UTC,2443345.479861,29.1083,-87.9186,0094,0.88,1.20,1.4881,36.2538
1977-07-20 23:51:00 UTC,2443345.493750,29.1083,-87.9186,0094,0.79,1.29,1.5127,31.4834
1977-07-21 00:11:00 UTC,2443345.507639,29.1083,-87.9186,0094,0.78,1.25,1.4734,31.9642
1977-07-21 00:31:00 UTC,2443345.521528,29.1083,-87.9186,0094,0.91,1.34,1.6198,34.1806
1977-07-21 00:51:00 UTC,2443345.535417,29.1083,-87.9186,0094,0.68,1.09,1.2847,31.9581
1977-07-21 01:11:00 UTC,2443345.549306,29.1083,-87.9186,0094,0.79,1.24,1.4703,32.5011
1977-07-21 01:31:00 UTC,2443345.563194,29.1083,-87.9186,0094,0.81,1.25,1.4895,32.9432
1977-07-21 01:51:00 UTC,2443345.577083,29.1083,-87.9186,0094,0.81,1.28,1.5148,32.3261
1977-07-21 02:11:00 UTC,2443345.590972,29.1083,-87.9186,0094,0.55,1.36,1.4670,22.0190
1977-07-21 02:31:00 UTC,2443345.604861,29.1083,-87.9186,0094,0.52,1.19,1.2987,23.6041
1977-07-21 02:51:00 UTC,2443345.618750,29.1083,-87.9186,0094,0.50,1.25,1.3463,21.8014
1977-07-21 03:11:00 UTC,2443345.632639,29.1083,-87.9186,0094,0.40,1.44,1.4945,15.5241
1977-07-21 03:31:00 UTC,2443345.646528,29.1083,-87.9186,0094,0.32,1.56,1.5925,11.5922
1977-07-21 03:51:00 UTC,2443345.660417,29.1083,-87.9186,0094,0.43,1.98,2.0262,12.2528
1977-07-21 04:11:00 UTC,2443345.674306,29.1083,-87.9186,0094,0.25,1.51,1.5306,9.4008
1977-07-21 04:31:00 UTC,2443345.688194,29.1083,-87.9186,0094,0.17,1.89,1.8976,5.1398
1977-07-21 04:51:00 UTC,2443345.702083,29.1083,-87.9186,0094,0.10,2.00,2.0025,2.8624
1977-07-21 05:11:00 UTC,2443345.715972,29.1083,-87.9186,0094,0.01,1.98,1.9800,0.2894
1977-07-21 05:31:00 UTC,2443345.729861,29.1083,-87.9186,0094,0.01,2.06,2.0600,0.2781
1977-07-21 05:51:00 UTC,2443345.743750,29.1083,-87.9186,0094,0.01,2.17,2.1700,0.2640
1977-07-21 06:11:00 UTC,2443345.757639,29.1083,-87.9186,0094,0.00,2.13,2.1300,0.0000
1977-07-21 06:31:00 UTC,2443345.771528,29.1083,-87.9186,0094,0.00,2.04,2.0400,0.0000
1977-07-21 06:51:00 UTC,2443345.785417,29.1083,-87.9186,0094,0.01,2.21,2.2100,0.2593
1977-07-21 07:11:00 UTC,2443345.799306,29.1083,-87.9186,0094,0.01,2.15,2.1500,0.2665
1977-07-21 07:31:00 UTC,2443345.813194,29.1083,-87.9186,0094,0.03,2.06,2.0602,0.8343
1977-07-21 07:51:00 UTC,2443345.827083,29.1083,-87.9186,0094,0.01,2.23,2.2300,0.2569
1977-07-21 08:11:00 UTC,2443345.840972,29.1083,-87.9186,0094,0.01,2.25,2.2500,0.2546
1977-07-21 08:31:00 UTC,2443345.854861,29.1083,-87.9186,0094,0.34,2.29,2.3151,8.4451
1977-07-21 08:51:00 UTC,2443345.868750,29.1083,-87.9186,0094,0.38,2.57,2.5979,8.4108
1977-07-21 09:11:00 UTC,2443345.882639,29.1083,-87.9186,0094,0.43,2.64,2.6748,9.2510
1977-07-21 09:31:00 UTC,2443345.896528,29.1083,-87.9186,0094,0.76,2.46,2.5747,17.1682
1977-07-21 09:51:00 UTC,2443345.910417,29.1083,-87.9186,0094,0.82,2.26,2.4042,19.9424
1977-07-21 10:11:00 UTC,2443345.924306,29.1083,-87.9186,0094,0.87,2.43,2.5810,19.6986
1977-07-21 10:31:00 UTC,2443345.938194,29.1083,-87.9186,0094,1.06,2.42,2.6420,23.6542
1977-07-21 10:51:00 UTC,2443345.952083,29.1083,-87.9186,0094,0.85,2.32,2.4708,20.1218
1977-07-21 11:11:00 UTC,2443345.965972,29.1083,-87.9186,0094,1.08,2.27,2.5138,25.4437
1977-07-21 11:31:00 UTC,2443345.979861,29.1083,-87.9186,0094,1.10,2.08,2.3530,27.8720
1977-07-21 11:51:00 UTC,2443345.993750,29.1083,-87.9186,0094,1.22,2.08,2.4114,30.3933
1977-07-21 12:11:00 UTC,2443346.007639,29.1083,-87.9186,0094,1.13,2.27,2.5357,26.4640
1977-07-21 12:31:00 UTC,2443346.021528,29.1083,-87.9186,0094,1.16,2.28,2.5581,26.9657
1977-07-21 12:51:00 UTC,2443346.035417,29.1083,-87.9186,0094,1.15,2.06,2.3593,29.1725
1977-07-21 13:11:00 UTC,2443346.049306,29.1083,-87.9186,0094,1.22,2.03,2.3684,31.0052
1977-07-21 13:31:00 UTC,2443346.063194,29.1083,-87.9186,0094,1.26,1.91,2.2882,33.4123
1977-07-21 13:51:00 UTC,2443346.077083,29.1083,-87.9186,0094,1.13,1.97,2.2711,29.8388
1977-07-21 14:11:00 UTC,2443346.090972,29.1083,-87.9186,0094,1.11,1.86,2.1660,30.8277
1977-07-21 14:31:00 UTC,2443346.104861,29.1083,-87.9186,0094,1.06,1.82,2.1062,30.2173
1977-07-21 14:51:00 UTC,2443346.118750,29.1083,-87.9186,0094,1.15,1.81,2.1444,32.4302
1977-07-21 15:11:00 UTC,2443346.132639,29.1083,-87.9186,0094,1.11,1.79,2.1062,31.8035
1977-07-21 15:31:00 UTC,2443346.146528,29.1083,-87.9186,0094,0.95,1.81,2.0442,27.6933
1977-07-21 15:51:00 UTC,2443346.160417,29.1083,-87.9186,0094,0.81,1.92,2.0839,22.8737